Location: Praha
(50.0830°N, 14.4670°E)
Time: 22:19:18
(UTC+02:00)

ISS - Pass Details

Date: 10 May 2021
Orbit: 418 x 421 km, 51.6° (Epoch: 07 May)

Event Time Altitude Azimuth Distance (km) Brightness Sun altitude
Exits shadow 02:50:23 27° 279° (W) 852 -2.4 -17.9°
Maximum altitude 02:52:03 66° 355° (N) 462 -3.4 -17.8°
Drops below altitude 10° 02:55:26 10° 79° (E) 1,506 -0.4 -17.5°
Sets 02:57:32 0° 82° (E) 2,372 0.6 -17.4°
